User: anonymous   Login
Location: Unspecified
(0.0000°N, 0.0000°E)
Time: 13:45:21
(UTC+02:00)
Language:

ASC 2 Rocket - Orbit

View from above orbital plane
View from above orbital plane
View from above satellite
View from above satellite

Ground track
Ground track

The orbit data is extracted from the following two-line orbital elements,

1 21228U 91028B   16178.24282814  .00000113  00000-0 -13000-4 0  9993
2 21228  23.9901 254.2099 1143746  89.6663 317.4619 12.53262512153094
Epoch (UTC): 26 June 2016 05:49:40
Eccentricity: 0.1143746
inclination: 23.9901°
perigee height: 555 km
apogee height: 2346 km
right ascension of ascending node: 254.2099°
argument of perigee: 89.6663°
revolutions per day: 12.53262512
mean anomaly at epoch: 317.4619°
orbit number at epoch: 15309

The dashed part of the orbit path shows where the satellite is in the earth's shadow,  

DLR